Regional Weather Roundup
Issued by NWS Albany, NY

Home | Current Version | Previous Version | Text Only | Print | Product List | Glossary On
Versions: 1 2 3 4 5 6 7 8 9 10 11 12 13 14 15 16 17 18 19 20 21 22 23 24 25 26 27 28 29 30 31 32 33 34 35 36 37 38 39 40 41 42 43 44 45 46 47 48 49 50
343
ASUS41 KALY 251410
RWRALY

NEW YORK STATE HOURLY WEATHER ROUNDUP
NATIONAL WEATHER SERVICE ALBANY NY
1000 AM EDT WED APR 25 2018

NOTE: "FAIR" INDICATES FEW OR NO CLOUDS BELOW 12,000 FEET WITH NO
SIGNIFICANT WEATHER AND/OR NO OBSTRUCTIONS TO VISIBILITY.

NYZ032-033-038>043-046>054-057>066-NYZ062>081-082-084-251500-
EAST


CITY           SKY/WX    TMP DP  RH WIND       PRES   REMARKS
ALBANY         LGT RAIN  51  48  89 N3        29.97F FOG
GLENS FALLS    LGT RAIN  50  49  96 N7        30.00F
POUGHKEEPSIE   LGT RAIN  54  52  93 NE7       29.91F VSB 1
NEWBURGH       LGT RAIN  54  54 100 NE7       29.92F FOG
MONTGOMERY     LGT RAIN  51  49  92 NE10      29.90F FOG
WHITE PLAINS   LGT RAIN  54  53  97 SE8       29.90F FOG
ISLIP          CLOUDY    57  56  96 E21G29    29.91F
NEW YORK CITY  LGT RAIN  60  55  83 SE15G28   29.87F
CENTRAL PARK   CLOUDY    57  55  93 VRB6G20   29.91F
$$

NYZ005>009-017-018-044>046-055-056-251500-
CENTRAL


CITY           SKY/WX    TMP DP  RH WIND       PRES   REMARKS
FULTON         CLOUDY    51  48  89 VRB5      29.88F
SYRACUSE       CLOUDY    51  51 100 NE13      29.88F
ROME           LGT RAIN  50  49  96 E8        29.93F
ELMIRA         CLOUDY    52  51  97 N5        29.85F
BINGHAMTON     LGT RAIN  49  48  97 SE9       29.85F FOG
MONTICELLO     LGT RAIN  48  47  96 E9        29.90F FOG
$$

NYZ026>034-041>043-087-251500-
NORTH


CITY           SKY/WX    TMP DP  RH WIND       PRES   REMARKS
WATERTOWN      CLOUDY    53  51  93 NE8       29.90F FOG
FORT DRUM      NOT AVBL
OGDENSBURG     RAIN      54  49  85 CALM      29.95F
MASSENA        LGT RAIN  56  46  69 E7        29.98F
SARANAC LAKE   CLOUDY    50  44  80 E5        29.95F
PLATTSBURGH    CLOUDY    50  47  89 SE9       30.01F
$$

NYZ001>004-010>016-019>021-085-251500-
WEST


CITY           SKY/WX    TMP DP  RH WIND       PRES   REMARKS
NIAGARA FALLS  CLOUDY    53  49  86 E6        29.85F FOG
BUFFALO        DRIZZLE   51  50  96 NE3       29.85F FOG
DUNKIRK        CLOUDY    52  51  97 N6        29.84F
JAMESTOWN      CLOUDY    49  47  93 S6        29.84F
WELLSVILLE     CLOUDY    50  49  96 SE5       29.85F
ROCHESTER      LGT RAIN  53  52  96 SE9       29.86F FOG
PENN YAN       CLOUDY    50  48  93 VRB3      29.86F FOG
$$

             KEY
       WCI = WIND CHILL INDEX
       VSB = VISIBILITY
       HX  = HEAT INDEX
$$




USA.gov is the U.S. government's official web portal to all federal, state and local government web resources and services.